User: anonymous   Login
Location: Unspecified
(0.0000°N, 0.0000°E)
Time: 22:16:04
(UTC+00:00)
Language:

VSP RF B1 - Orbit

View from above orbital plane
View from above orbital plane
View from above satellite
View from above satellite

Ground track
Ground track

The orbit is defined by the following mean orbital elements,

1 59137U          26145.61003045 +.00000000 +00000-0 +14037-3 0 00003
2 59137  97.5584 282.2804 0009772 322.7915  37.2645 15.27399130    02
Epoch (UTC): 25 May 2026 14:38:26
Eccentricity: 0.0009772
inclination: 97.5584°
perigee height: 477 km
apogee height: 490 km
right ascension of ascending node: 282.2804°
argument of perigee: 322.7915°
revolutions per day: 15.27399130
mean anomaly at epoch: 37.2645°

The dashed part of the orbit path shows where the satellite is in the earth's shadow,  

DLR